Overview Statistics Trail Chart Weather Telemetry Raw packets
 

This is the latest recevied weather packets stored in our database for station/object DL4SAV. If no packets are shown the sender has not sent any weather packets the latest 10 day(s).

<< 79 80 81 82 83 84 85 >>
Time Temp. Humidity Pressure Rain* Wind** Luminosity Snow
1788027886 19.44° C 59% 1015.5 hPa 0 mm - - -
1788027586 20° C 59% 1015.6 hPa 0 mm - - -
1788027286 20° C 58% 1015.5 hPa 0 mm - - -
1788026985 20° C 58% 1015.6 hPa 0 mm - - -
1788026696 20° C 57% 1015.5 hPa 0 mm - - -
1788026385 20.56° C 57% 1015.4 hPa 0 mm - - -
1788026085 20.56° C 57% 1015.4 hPa 0 mm - - -
1788025784 21.11° C 57% 1015.3 hPa 0 mm - - -
1788025484 21.11° C 57% 1015.4 hPa 0 mm - - -
1788025184 21.67° C 57% 1015.3 hPa 0 mm - - -
1788024884 21.67° C 57% 1015.2 hPa 0 mm - - -
1788024583 22.22° C 57% 1015.1 hPa 0 mm - - -
1788024283 22.22° C 57% 1015.2 hPa 0 mm - - -
1788023983 22.78° C 56% 1015.2 hPa 0 mm - - -
1788023682 23.89° C 55% 1015 hPa 0 mm - - -
1788023382 23.89° C 54% 1015 hPa 0 mm - - -
1788023082 24.44° C 54% 1015 hPa 0 mm - - -
1788022782 23.89° C 55% 1015.1 hPa 0 mm - - -
1788022481 23.33° C 56% 1015.1 hPa 0 mm - - -
1788022181 22.78° C 57% 1015.1 hPa 0 mm - - -
1788021881 22.78° C 55% 1015.2 hPa 0 mm - - -
1788021580 23.33° C 55% 1015.3 hPa 0 mm - - -
1788021280 23.89° C 53% 1015.3 hPa 0 mm - - -
1788020980 23.89° C 53% 1015.3 hPa 0 mm - - -
1788020680 24.44° C 54% 1015.3 hPa 0 mm - - -

* Rain latest hour (hover to see other rain measurements)
** Current wind speed in m/s (hover to see current wind gust speed)